Terug naar catalogus

FENGYUN 1C DEB

ActiefPO
NORAD 30291·DEBRIS·🇨🇳 China

Gelanceerd May 10, 1999 vanaf Taiyuan Satellite Launch Center

Loading…

Volgende Passages (komende 24 uur)

TLE

VersSource: Space-Track

Epoch: Sep 14, 2026, 01:45 UTC

1 30291U 99025ZC  26257.07309044  .00006416  00000-0  12348-2 0  9996
2 30291  97.2130 115.0822 0098366 220.3861 294.5745 14.60784841 17076

Volg FENGYUN 1C DEB in realtime met AllMySat

Download on the App Store